Location: Aranbee
(34.0885°N, 118.2342°W)
Time: 22:51:35
(UTC+00:00)

A-11 Canister half - Pass Details

Date: 31 July 2021
Orbit: 1515 x 1685 km, 47.2° (Epoch: 22 September)

Event Time Altitude Azimuth Distance (km) Brightness Sun altitude
Rises 05:36:45 0° 301° (WNW) 4,897 12.7 -27.7°
Reaches altitude 10° 05:40:05 10° 307° (NW) 3,924 12.0 -28.1°
Maximum altitude 05:49:49 49° 20° (NNE) 2,083 9.8 -29.3°
Enters shadow 05:56:14 23° 83° (E) 3,037 10.3 -30.1°
